sat.trackr.live / text

‹ back to catalog

STARLINK-31052

NORAD 58600 · 2023-200M

PAYLOAD ACTIVE UNKNOWN

§ Identity

Operator
Country
US
Launch date
2023-12-19
Launch site
AFETR
Launch vehicle
Mass (kg)
RCS (m²)

Purposes: comms

External: N2YO · Heavens-Above · Gunter

§ Orbital elements

Epoch: 2026-09-19T10:15:12.962304Z

Period
94.27 min
Inclination
43.0058°
Eccentricity
0.0001710
Mean motion
15.27575458 rev/d
Perigee alt
481.9 km
Apogee alt
484.2 km
Semi-major
6,861.2 km
B*
7.6512e-6
RAAN
154.4581°
Arg perigee
256.2095°
Mean anomaly
103.8566°
Rev number
15,324

§ Raw data

STARLINK-310521 58600U 23200M   26262.42723336 -.00000052  00000+0  76512-5 0  99972 58600  43.0058 154.4581 0001710 256.2095 103.8566 15.27575458153240

JSON: /api/v1/satellites/58600 · /tle

For live sub-satellite position, see the globe view (requires WebGL).

§ Visibility from observer

Set your observer location to see the next 7 days of passes ≥ 10°. The values pass through the URL so the page stays shareable.

No JS? Fill the form by hand. The geolocation button needs JavaScript.